FLOCK 4Y 12

导读

FLOCK 4Y 12是由美国发射的一颗商业遥感卫星,于北京时间2023年1月3日8时成功发射入轨。它属于Planet Labs公司Flock系列卫星群,该系列卫星以组网实现高重访率地球观测为核心目标,FLOCK 4Y 12主要负责获取全球高分辨率光学遥感影像,可服务于农业监测、城市规划、灾害评估、地理测绘等多个领域,为全球地理信息数据更新与地球动态观测提供支撑。

基本信息
目录编号:
55065
目录名称:
FLOCK 4Y 12
国际标识:
2023-001BJ
轨道中心:
EARTH
卫星名称:
FLOCK 4Y 12
卫星全名:
--
卫星状态:
已陨落 最后检测时间 2025-09-25
发射日期:
2023-01-03 UTC
国别 :
美国 (US)
星等 :
--
轨道信息
数据来源 国际轨道数据
星历时间: 2025-09-25T07:49:21+0800
轨道信息已过期304天
半长轴: 6548.653km
偏心率: 0.0014326
轨道倾角: 97.334°
近地点辐角 272.188°
升交点赤经 346.873°
平近点角 87.777°
近地点: 161.136km
远地点: 179.9km
周期: 87.900分钟
每日圈数: 16.382299
详细信息
使用方式:
暂无